Regional Weather Roundup
Issued by NWS

Home | Current Version | Previous Version | Graphics & Text | Print | Product List | Glossary On
Versions: 1 2 3 4 5 6 7 8 9 10 11 12 13 14 15 16 17 18 19 20 21 22 23 24 25 26 27 28
000
ASUS45 KPSR 191410
RWRAZ

ARIZONA HOURLY REGIONAL WEATHER ROUNDUP
NATIONAL WEATHER SERVICE PHOENIX AZ
700 AM MST SUN NOV 19 2017

NOTE: FAIR INDICATES FEW OR NO CLOUDS BELOW 12,000 FEET WITH NO
SIGNIFICANT WEATHER AND/OR OBSTRUCTIONS TO VISIBILITY.

AZZ001>003-036-191500-
NORTHWEST ARIZONA

CITY           SKY/WX    TMP DP  RH WIND       PRES   REMARKS
BULLHEAD CITY  CLEAR     55  16  21 N21G28    30.13R
KINGMAN        PTCLDY    27   5  39 E5        30.19R WCI  22
$$

AZZ004>008-015-016-018-191500-
NORTH CENTRAL ARIZONA

CITY           SKY/WX    TMP DP  RH WIND       PRES   REMARKS
GRAND CANYON   MOCLDY    32   0  25 E7        30.27S WCI  26
WILLIAMS       PTCLDY    30   3  31 S14       30.25S WCI  20
PRESCOTT       MOCLDY    24   2  38 SW5       30.22S WCI  18
FLAGSTAFF      MOCLDY    10   0  63 CALM      30.28F
PAYSON           N/A     41  12  30 CALM      30.23R
PAGE           CLOUDY    29   8  41 W3        30.33S
$$

AZZ009>014-017-191500-
NORTHEAST ARIZONA

CITY           SKY/WX    TMP DP  RH WIND       PRES   REMARKS
WINSLOW        CLOUDY   N/A N/A N/A CALM      30.33R
SAINT JOHNS    CLOUDY    18   2  49 CALM      30.29R
WINDOW ROCK    MOCLDY     7   1  76 CALM      30.34R
SHOW LOW       DRIZZLE   23   1  39 CALM      30.30S
$$

AZZ540-542>544-546-548-191500-
GREATER PHOENIX AREA

CITY           SKY/WX    TMP DP  RH WIND       PRES   REMARKS
PHOENIX        PTCLDY    53  20  27 SW3       30.04R
BUCKEYE        CLEAR     46  10  23 NW6       30.06R
GLENDALE       PTCLDY    52  14  22 CALM      30.07
LUKE AFB       CLEAR     48  21  34 N8        30.04R
DEER VALLEY    CLEAR     53  10  18 N5        30.05R
SCOTTSDALE     CLEAR     50  24  36 CALM      30.06R
MESA-FALCON    PTCLDY    55  12  18 N13       30.05S
MESA-GATEWAY   PTCLDY    45  19  36 E5        30.05S
CHANDLER       CLEAR     54  16  22 CALM      30.05R
$$

AZZ539-553-191500-
SOUTHWEST MARICOPA COUNTY AND PINAL COUNTY

CITY           SKY/WX    TMP DP  RH WIND       PRES   REMARKS
CASA GRANDE    NOT AVBL
$$

AZZ503-504-507>509-191500-
SOUTHEAST ARIZONA

CITY           SKY/WX    TMP DP  RH WIND       PRES   REMARKS
TUCSON         CLEAR     58  23  26 E9        30.08S
DAVIS-MONTHAN  CLEAR     51  22  33 SE9       30.06S
RYAN FIELD     CLEAR     57  27  30 MISG      30.07S
NOGALES        CLEAR     48  27  44 NE8       30.10R
SIERRA VISTA   CLEAR     43  20  39 E5        30.17R
DOUGLAS        PTCLDY    41  20  43 N9        30.17R
SAFFORD        PTCLDY    48  18  30 SE10      30.21R
$$

AZZ532-191500-
SOUTHWEST ARIZONA

CITY           SKY/WX    TMP DP  RH WIND       PRES   REMARKS
YUMA           CLEAR     57  12  17 N9        30.07R
$$

CAZ041-043-047-048-061-525>527-560>570-191500-
SOUTHERN CALIFORNIA

CITY           SKY/WX    TMP DP  RH WIND       PRES   REMARKS
DOWNTOWN L.A.  CLEAR     57  22  25 CALM      30.06R
L.A. AIRPORT   PTCLDY    58  22  24 N5        30.06R
SAN DIEGO      PTCLDY    54  47  77 CALM      30.06R
BURBANK        CLEAR     53  25  33 SW6       30.07R
ONTARIO        PTCLDY    44  29  55 CALM      30.07R
RIVERSIDE      CLEAR     52  25  35 CALM      30.07R
PALM SPRINGS   PTCLDY    57  20  23 NW5       30.11S
EL CENTRO NAS  CLEAR     45  21  38 W9        30.10R
IMPERIAL       CLEAR     44  27  51 W6        30.07S
BLYTHE         CLEAR     47  10  22 W5        30.12R
NEEDLES        CLEAR     51  13  21 NW6       30.15R
$$

NVZ020-UTZ003-191500-
SOUTHERN NEVADA-UTAH

CITY           SKY/WX    TMP DP  RH WIND       PRES   REMARKS
LAS VEGAS      PTCLDY    42  10  27 CALM      30.19R
SALT LAKE CITY MOCLDY    30  23  75 E6        30.27F WCI  24
$$

NMZ009-TXZ055-191500-
NEW MEXICO-WEST TEXAS

CITY           SKY/WX    TMP DP  RH WIND       PRES   REMARKS
ALBUQUERQUE    CLOUDY    30   8  39 N9        30.32S WCI  22
EL PASO        MOCLDY    42  17  36 N6        30.30R
$$


........................KEY........................
SKY/WX - SKY CONDITION/WEATHER
TMP    - TEMPERATURE IN FAHRENHEIT
DP     - DEW POINT IN FAHRENHEIT
RH     - RELATIVE HUMIDITY IN PERCENT
WIND   - DIRECTION AND SPEED IN MILES PER HOUR (MPH)
VRB    - VARIABLE WIND DIRECTION
PRES   - MEAN SEA LEVEL PRESSURE IN INCHES OF MERCURY
         F - FALLING PRESSURE   R - RISING PRESSURE
         S - STEADY PRESSURE
VSB    - VISIBILITY IN MILES
HX     - HEAT INDEX IN FAHRENHEIT
WCI    - WIND CHILL INDEX IN FAHRENHEIT
TC     - TEMPERATURE IN CELSIUS WHICH IS ALSO KNOWN AS
         TEMPERATURE IN CENTIGRADE
AFB    - AIR FORCE BASE
         LUKE AFB IS LUKE AIR FORCE BASE
         DAVIS-MONTHAN IS DAVIS-MONTHAN AIR FORCE BASE
NAS    - NAVAL AIR STATION
         EL CENTRO NAS IS EL CENTRO NAVAL AIR STATION
N/A    - NOT AVAILABLE





USA.gov is the U.S. government's official web portal to all federal, state and local government web resources and services.